Location: Cazavet
(43.0017°N, 1.0431°E)
Time: 22:38:53
(UTC+00:00)

Cosmos 1461 - Pass Details

Date: 18 January 2026
Orbit: 426 x 503 km, 65.0° (Epoch: 13 February)

Event Time Altitude Azimuth Distance (km) Brightness Sun altitude
Rises 06:04:48 0° 211° (SSW) 2,576 6.1 -14.1°
Reaches altitude 10° 06:06:56 10° 211° (SSW) 1,706 5.2 -13.7°
Maximum altitude 06:10:46 86° 125° (SE) 515 2.7 -13.0°
Drops below altitude 10° 06:14:40 10° 34° (NE) 1,736 5.6 -12.3°
Sets 06:16:51 0° 34° (NE) 2,626 6.5 -12.0°
